SCP
1 1 1 1 1 1 1 1 1 1 0 1 1 0 0 0 0 0 0 0 0 0 0 1 1 1 1 1 1 1 1 1 1 1 1 1 1 1 1 1 1 1 1
1 1 1 1 1 1 1 1 1 1 0 0 0 0 0 0 0 0 0 0 0 0 0 0 0 1 1 1 1 1 1 1 1 1 1 1 1 1 1 1 1 1 1
1 1 1 1 1 1 1 1 1 1 0 0 0 0 0 0 0 0 0 0 0 0 0 0 0 0 1 1 1 1 1 1 1 1 1 1 1 1 1 1 1 1 1
1 1 1 1 1 1 1 1 1 1 0 0 0 0 0 0 0 0 0 0 0 0 0 0 0 0 0 0 1 1 1 1 1 1 1 1 1 1 1 1 1 1 1
1 1 1 1 1 0 0 0 1 1 0 0 0 0 0 0 0 0 0 0 0 0 0 0 0 0 0 0 0 0 0 0 1 1 1 1 1 1 1 1 1 1 1
1 1 0 0 0 0 0 0 0 0 0 0 0 0 0 0 0 0 0 0 0 0 0 0 0 0 0 0 0 0 0 0 0 1 1 1 1 1 1 1 1 1 1
1 1 1 0 0 0 0 0 0 0 0 0 0 0 0 0 0 0 0 0 0 0 0 0 0 0 0 0 0 0 0 0 0 0 1 1 1 1 1 1 1 1 1
1 1 1 1 0 0 0 0 0 0 0 0 0 0 0 0 0 0 0 0 0 0 0 0 0 0 0 0 0 0 0 0 0 0 0 1 2 2 1 1 1 1 1
1 1 1 1 1 0 0 0 0 0 0 0 0 0 0 0 0 0 0 0 0 0 0 0 0 0 0 0 0 0 0 0 0 0 0 1 1 2 1 1 1 1 1
1 1 1 1 1 1 1 1 0 0 0 0 0 0 0 0 0 0 0 0 0 0 0 0 0 0 0 0 0 0 0 0 0 0 0 1 1 1 1 1 1 1 1
0 0 1 1 1 1 1 1 1 1 0 0 0 0 0 0 0 0 0 0 0 0 0 0 0 0 0 0 0 0 0 0 0 0 0 1 1 1 1 1 1 1 1
0 0 0 1 1 1 1 1 1 1 0 0 0 0 0 0 0 0 0 0 0 0 0 0 0 0 0 0 0 0 0 0 0 0 0 0 1 1 1 1 1 1 0
0 0 0 0 0 1 1 1 1 1 0 0 0 0 0 0 0 0 0 0 0 0 0 0 0 0 0 0 0 0 0 0 0 0 0 0 0 0 0 1 1 1 0
0 0 0 0 0 0 0 1 1 1 1 0 0 0 0 0 0 0 0 0 0 0 0 0 0 0 0 0 0 0 0 0 0 0 0 0 0 0 0 0 0 0 1
0 0 0 0 0 0 0 0 0 0 0 0 0 0 0 0 0 0 0 0 0 0 0 0 0 0 0 0 0 0 0 0 0 0 0 0 0 0 0 0 0 0 1
0 0 0 0 0 0 0 0 0 0 0 0 0 0 0 0 0 0 0 0 0 0 0 0 0 0 0 0 0 0 0 0 0 0 0 0 0 0 0 0 0 0 0
1 0 0 0 0 0 0 0 0 0 0 0 0 0 0 0 0 0 0 0 0 0 0 0 0 0 0 0 0 0 0 0 0 0 0 0 0 0 0 0 0 0 0
1 1 0 0 0 0 0 0 0 0 0 0 0 0 0 0 0 0 0 0 0 0 0 0 0 0 0 0 0 0 0 0 0 0 0 0 0 0 0 0 0 0 0
1 1 1 0 0 0 0 0 0 0 0 0 0 0 0 0 0 0 0 0 0 0 0 0 0 0 0 0 0 0 0 0 0 0 0 0 0 0 0 0 0 0 0
2 1 1 1 0 0 0 0 0 0 0 0 0 0 0 0 0 0 0 0 0 0 0 0 0 0 0 0 0 0 0 0 0 0 0 0 0 0 0 0 0 0 0
2 2 1 1 1 0 0 0 0 0 0 0 0 0 0 0 0 0 0 0 0 0 0 0 0 0 0 0 0 0 0 0 0 0 0 0 0 0 0 0 0 0 0
2 2 2 1 1 1 0 0 0 0 0 0 0 0 0 0 0 0 0 0 0 0 0 0 0 0 0 0 0 0 0 0 0 0 0 0 0 0 0 0 0 0 0
2 2 2 1 1 1 0 0 0 0 0 0 0 0 0 0 0 0 0 0 0 0 0 0 0 0 0 0 0 0 0 0 0 0 0 0 0 0 0 0 0 0 0
1 1 2 2 2 1 0 0 0 0 0 0 0 0 0 0 0 0 0 0 0 0 0 0 0 0 0 0 0 0 0 0 0 0 0 0 0 0 0 0 0 0 0
0 1 1 2 2 1 0 0 0 0 0 0 0 0 0 0 0 0 0 0 0 0 0 0 0 0 0 0 0 0 0 0 0 0 0 0 0 0 0 0 0 0 0
0 0 1 1 2 1 1 0 0 0 0 0 0 0 0 0 0 0 0 0 0 0 0 0 0 0 0 0 0 0 0 0 0 0 0 0 0 0 0 0 0 0 0
Wind_Speed
1 1 0 0 0 1 1 1 1 1 2 2 2 2 2 2 2 2 0 1 2 3 2 1 2 2 2 2 3 3 4 3 4 4 4 4 4 5 5 5 5 5 5
0 0 0 0 1 1 1 1 2 2 2 1 2 2 3 2 3 2 2 1 0 1 2 2 2 3 3 3 3 4 4 4 5 5 5 5 5 5 5 5 6 6 6
1 1 1 1 1 1 2 1 2 2 2 2 2 2 2 2 3 2 2 1 1 1 1 2 2 3 3 3 4 4 4 4 5 5 5 5 6 6 6 6 7 7 7
1 1 1 1 1 1 1 1 2 2 2 2 2 2 2 2 3 2 1 1 1 1 0 1 2 3 3 3 4 4 4 5 5 6 6 6 6 6 7 7 8 8 9
1 1 1 1 1 1 1 2 2 2 2 2 2 2 2 2 2 2 1 1 1 1 1 1 1 2 3 3 4 4 5 5 5 6 6 6 7 7 7 8 8 9 9
1 1 1 1 1 1 1 2 2 2 2 1 2 2 2 2 2 1 1 1 1 1 1 1 1 0 2 4 5 5 6 6 6 7 7 7 8 8 8 9 8 9 9
1 1 1 1 1 1 2 2 2 2 1 1 2 2 2 2 2 1 2 1 1 1 1 1 1 2 1 2 4 6 7 7 8 8 8 8 8 8 9 9 10 10 10
1 1 2 1 2 2 2 2 2 1 1 1 2 2 2 3 2 2 2 2 2 1 1 1 1 2 2 2 3 5 7 8 9 10 9 9 10 9 9 10 10 11 11
2 2 3 2 2 2 2 2 2 3 2 2 2 2 3 3 1 2 3 3 3 2 2 2 2 2 3 2 3 4 6 9 10 10 10 10 10 10 10 10 11 12 12
1 2 3 3 3 3 3 3 3 3 3 2 2 2 3 2 3 2 2 3 3 3 3 3 3 3 3 3 3 5 7 8 9 10 10 10 11 11 11 11 11 12 13
1 1 2 3 3 3 4 4 3 4 3 3 3 2 2 3 4 4 4 3 3 3 3 4 4 4 4 3 3 4 7 8 9 10 10 11 11 12 12 12 12 12 12
1 2 2 2 3 3 4 4 4 5 4 4 4 3 3 3 3 4 5 5 4 3 4 4 4 4 3 3 4 5 7 7 9 10 10 10 10 11 11 11 12 12 12
1 2 3 3 3 3 3 4 4 4 4 5 4 3 3 3 3 3 4 5 6 4 4 4 3 3 3 4 3 5 6 7 7 8 9 9 10 10 11 11 12 12 13
2 2 3 3 3 3 3 3 3 3 3 4 4 4 3 3 3 3 3 4 5 5 5 5 3 3 3 4 4 6 5 6 7 8 9 9 9 10 11 11 12 12 13
2 2 2 2 2 2 2 2 2 2 2 3 3 4 3 3 3 3 4 4 5 6 6 5 3 3 3 4 4 5 5 5 7 8 9 9 9 10 11 11 11 12 13
2 2 2 2 2 2 2 2 2 2 2 3 2 3 3 3 3 3 4 4 5 6 6 4 4 5 4 4 4 5 5 7 8 8 9 9 10 10 11 11 12 12 13
2 2 2 2 2 2 2 2 3 3 3 3 3 3 4 4 3 3 3 4 4 5 7 6 5 5 6 6 4 5 5 5 5 7 9 9 10 11 11 12 12 13 13
2 2 2 2 2 2 2 3 3 3 3 4 4 4 4 3 5 4 4 4 4 5 5 7 6 5 6 6 6 6 5 5 5 6 8 9 10 10 10 11 11 12 12
2 2 2 3 3 3 3 3 3 4 4 4 4 4 5 5 5 4 4 4 4 4 5 6 6 5 5 4 5 5 6 5 6 6 7 9 10 10 10 11 11 12 12
3 2 3 3 3 3 3 3 3 4 4 4 4 4 5 5 5 5 4 5 5 5 5 5 5 5 5 4 4 5 5 5 5 5 6 7 9 10 11 11 11 11 12
3 3 3 3 3 3 3 3 4 4 4 4 4 4 4 5 6 6 5 5 5 5 5 5 5 5 5 4 4 4 6 6 6 4 5 6 6 6 7 8 9 11 12
3 3 3 3 3 3 3 5 4 4 4 5 5 5 5 5 6 7 7 7 7 6 6 5 5 6 6 6 5 5 5 6 5 3 5 7 5 6 6 6 9 12 13
3 3 3 3 4 3 4 5 5 5 4 5 5 5 4 4 6 5 6 7 7 7 8 7 7 8 7 6 6 7 6 6 7 6 6 7 6 6 6 6 11 11 11
3 3 4 4 4 4 4 5 5 5 4 5 5 5 5 5 5 6 6 6 6 6 7 7 7 7 7 6 6 7 7 7 7 5 4 6 6 6 7 6 8 9 10
3 3 4 4 4 4 4 5 5 4 4 5 5 5 5 6 6 5 6 6 6 5 5 6 8 8 8 8 6 5 5 5 5 4 3 4 5 7 7 5 5 8 10
3 3 3 4 4 5 4 5 5 3 4 4 4 4 5 6 7 6 5 5 6 5 5 5 6 6 6 5 6 5 5 5 4 4 2 4 4 5 5 4 5 6 7
Wind_Direction
159 160 166 171 245 267 241 238 240 244 248 252 256 265 269 275 275 275 264 64 322 314 306 301 305 303 307 314 315 318 319 309 306 302 298 303 305 306 304 307 311 308 304
177 176 184 225 248 261 271 269 272 269 265 261 256 257 260 266 270 272 272 198 114 332 320 310 311 310 309 309 311 313 316 315 315 314 303 301 302 304 302 302 301 302 303
203 214 228 222 247 260 254 259 272 277 280 276 264 265 272 275 270 268 271 271 227 160 331 316 316 316 316 319 317 316 313 313 316 317 309 301 296 295 293 295 296 298 298
212 219 229 244 268 258 255 257 260 261 263 271 275 277 274 277 277 280 265 267 270 265 201 4 333 323 316 315 317 317 316 322 320 315 309 304 300 295 292 294 294 293 294
221 225 242 262 271 265 255 255 257 261 265 273 279 285 282 279 278 267 257 270 279 285 289 80 359 345 334 323 320 321 318 316 314 313 314 306 300 297 295 294 295 295 294
214 235 229 252 252 256 269 264 264 263 273 278 283 284 285 278 271 268 265 251 262 273 284 306 286 316 326 317 315 313 310 311 309 303 304 303 301 297 294 293 294 296 298
219 220 237 235 247 242 257 265 261 252 266 292 272 271 259 251 258 259 260 252 258 304 297 300 298 298 298 316 311 312 311 309 306 304 303 303 302 300 295 290 291 292 295
241 229 230 240 247 250 253 260 248 247 240 232 263 278 266 227 214 248 251 251 259 261 277 284 287 293 298 294 332 314 308 307 306 305 303 304 303 300 297 295 292 293 293
250 244 233 232 240 246 248 250 244 238 238 226 236 255 263 266 303 228 247 247 250 261 269 261 261 273 281 287 297 307 312 308 304 303 305 304 301 300 296 296 296 294 292
261 259 250 242 240 239 245 247 242 243 239 236 228 249 275 296 275 273 237 254 263 262 266 263 261 261 267 273 283 303 312 307 304 302 303 304 303 302 299 299 299 297 296
252 270 271 258 248 244 245 248 246 242 239 242 236 238 250 261 260 261 269 268 270 265 269 265 263 259 256 259 268 296 307 305 304 303 303 304 304 303 302 303 301 299 300
263 268 270 269 260 249 241 241 242 242 241 241 239 234 234 238 244 252 266 277 276 274 270 262 261 260 260 264 272 303 300 299 300 302 303 304 305 305 305 306 307 305 304
267 271 270 261 258 256 252 245 240 241 239 238 236 237 240 247 256 258 266 278 282 283 270 255 251 256 259 268 271 294 285 290 297 302 303 303 303 303 302 303 304 306 306
257 270 266 266 264 261 261 254 250 247 243 240 238 236 236 243 242 247 253 265 277 273 262 265 257 253 265 271 285 280 274 284 293 297 299 300 300 300 298 299 301 303 304
262 264 266 266 268 267 261 256 252 249 249 250 246 240 237 240 241 240 241 245 258 271 270 269 266 264 283 279 280 273 278 288 293 293 294 295 294 294 294 296 298 300 300
268 270 276 277 274 270 264 257 250 243 241 249 254 252 251 244 237 236 239 245 252 263 272 277 280 290 290 282 284 281 285 291 282 285 290 292 293 293 292 294 296 297 299
256 259 267 271 268 268 268 262 258 248 243 250 251 249 255 258 251 247 245 246 250 253 263 276 280 287 286 288 288 285 286 283 281 285 290 291 294 293 293 294 295 296 298
257 261 262 262 268 270 266 260 262 260 254 252 253 251 254 257 256 255 251 250 253 256 260 272 278 282 283 288 289 287 288 285 284 287 284 287 290 291 293 295 296 297 298
261 260 257 258 262 265 265 262 260 264 262 260 259 257 255 254 257 256 251 254 256 258 258 265 274 280 283 287 291 289 290 290 286 283 278 279 285 289 291 291 292 295 297
262 261 257 257 258 262 260 258 261 263 263 264 265 264 260 258 259 259 256 257 258 261 260 262 269 276 283 290 290 291 293 294 289 286 279 285 287 286 284 287 290 292 295
265 263 259 260 262 261 258 257 256 257 257 260 263 264 266 270 273 268 265 261 260 260 262 263 266 274 279 289 288 289 288 296 292 277 287 286 286 282 282 283 285 291 295
267 261 260 260 263 265 267 264 259 259 256 258 263 267 265 260 261 264 268 268 264 262 264 265 267 271 276 277 283 283 284 289 288 291 294 289 285 282 284 286 295 296 296
272 267 263 263 265 268 268 266 263 267 261 259 260 263 265 264 264 264 265 264 258 256 258 263 266 268 273 276 279 279 277 277 277 290 292 282 284 284 290 291 293 292 295
271 269 270 269 270 267 264 266 268 260 259 258 260 263 265 266 266 272 273 270 265 260 257 256 264 270 274 278 275 276 278 280 279 277 272 275 290 294 298 291 292 293 300
273 273 276 272 271 276 267 266 273 263 257 261 265 268 270 270 274 275 274 272 271 269 257 259 270 275 281 281 279 275 275 278 283 284 276 276 293 303 294 288 294 297 298
277 279 279 280 277 277 274 266 270 263 260 264 268 269 270 275 282 281 274 269 269 276 278 272 268 267 270 272 270 264 265 270 283 284 285 294 294 311 300 289 299 302 300